Time,TemperatureF,DewpointF,PressureIn,WindDirection,WindDirectionDegrees,WindSpeedMPH,WindSpeedGustMPH,Humidity,HourlyPrecipIn,Conditions,Clouds,dailyrainin,SoftwareType,DateUTC
2013-07-12 00:00:00,59.2,54.7,29.89,East,95,0.0,0.0,85,0.00,,SKC,0.00,VWS V14.01,2013-07-12 04:00:00,
2013-07-12 00:01:00,59.2,54.7,29.89,East,95,0.0,0.0,85,0.00,,SKC,0.01,VWS V14.01,2013-07-12 04:01:00,
2013-07-12 00:02:00,59.2,54.7,29.89,East,95,0.0,0.0,85,0.00,,SKC,0.00,VWS V14.01,2013-07-12 04:02:00,
2013-07-12 00:03:00,59.2,54.7,29.89,East,95,0.0,0.0,85,0.00,,SKC,0.00,VWS V14.01,2013-07-12 04:03:00,
2013-07-12 00:08:00,59.0,54.5,29.89,East,95,0.0,0.0,85,0.00,,SKC,0.00,VWS V14.01,2013-07-12 04:08:00,
2013-07-12 00:13:00,59.2,54.7,29.89,East,95,0.0,0.0,85,0.00,,SKC,0.00,VWS V14.01,2013-07-12 04:13:00,
2013-07-12 00:18:00,59.5,54.7,29.89,East,95,0.0,0.0,84,0.00,,SKC,0.00,VWS V14.01,2013-07-12 04:18:00,
2013-07-12 00:23:00,59.8,55.0,29.89,East,95,0.0,0.0,84,0.00,,SKC,0.00,VWS V14.01,2013-07-12 04:23:00,
2013-07-12 00:28:00,59.8,54.6,29.89,East,95,0.0,0.0,83,0.00,,SKC,0.00,VWS V14.01,2013-07-12 04:28:00,
2013-07-12 00:33:00,59.6,54.8,29.89,East,95,0.0,0.0,84,0.00,,SKC,0.00,VWS V14.01,2013-07-12 04:33:00,
2013-07-12 00:39:00,59.3,54.8,29.89,East,95,0.0,0.0,85,0.00,,SKC,0.00,VWS V14.01,2013-07-12 04:39:00,
2013-07-12 00:44:00,58.9,54.7,29.89,East,95,0.0,0.0,86,0.00,,SKC,0.00,VWS V14.01,2013-07-12 04:44:00,
2013-07-12 00:49:00,58.6,54.4,29.89,East,95,0.0,0.0,86,0.00,,SKC,0.00,VWS V14.01,2013-07-12 04:49:00,
2013-07-12 00:54:00,58.6,54.4,29.89,East,95,0.0,0.0,86,0.00,,SKC,0.00,VWS V14.01,2013-07-12 04:54:00,
2013-07-12 00:59:00,58.7,54.5,29.89,East,95,0.0,0.0,86,0.00,,SKC,0.00,VWS V14.01,2013-07-12 04:59:00,
2013-07-12 01:00:00,58.9,54.7,29.89,East,95,0.0,0.0,86,0.00,,SKC,0.00,VWS V14.01,2013-07-12 05:00:00,
2013-07-12 01:04:00,58.9,54.7,29.89,East,95,0.0,0.0,86,0.00,,SKC,0.00,VWS V14.01,2013-07-12 05:04:00,
2013-07-12 01:10:00,59.0,54.8,29.89,East,95,0.0,0.0,86,0.00,,SKC,0.00,VWS V14.01,2013-07-12 05:10:00,
2013-07-12 01:15:00,59.3,54.8,29.89,East,95,0.0,0.0,85,0.00,,SKC,0.00,VWS V14.01,2013-07-12 05:15:00,
2013-07-12 01:20:00,59.6,54.8,29.89,East,95,0.0,0.0,84,0.00,,SKC,0.00,VWS V14.01,2013-07-12 05:20:00,
2013-07-12 01:25:00,59.6,54.8,29.89,East,95,0.0,0.0,84,0.00,,SKC,0.00,VWS V14.01,2013-07-12 05:25:00,
2013-07-12 01:30:00,59.6,54.8,29.89,East,95,0.0,0.0,84,0.00,,SKC,0.00,VWS V14.01,2013-07-12 05:30:00,
2013-07-12 01:35:00,59.5,54.7,29.89,East,95,0.0,0.0,84,0.00,,SKC,0.00,VWS V14.01,2013-07-12 05:35:00,
2013-07-12 01:40:00,59.5,54.7,29.89,East,95,0.0,0.0,84,0.00,,SKC,0.00,VWS V14.01,2013-07-12 05:40:00,
2013-07-12 01:45:00,59.6,54.8,29.89,East,95,0.0,0.0,84,0.00,,SKC,0.00,VWS V14.01,2013-07-12 05:45:00,
2013-07-12 01:51:00,59.8,55.0,29.89,East,95,0.0,0.0,84,0.00,,SKC,0.00,VWS V14.01,2013-07-12 05:51:00,
2013-07-12 01:56:00,59.6,54.8,29.89,East,95,0.0,0.0,84,0.00,,SKC,0.00,VWS V14.01,2013-07-12 05:56:00,
2013-07-12 02:00:00,59.5,55.0,29.88,East,95,0.0,0.0,85,0.00,,SKC,0.00,VWS V14.01,2013-07-12 06:00:00,
2013-07-12 02:01:00,59.5,55.0,29.88,East,95,0.0,0.0,85,0.00,,SKC,0.00,VWS V14.01,2013-07-12 06:01:00,
2013-07-12 02:06:00,59.5,55.0,29.88,East,95,0.0,0.0,85,0.00,,SKC,0.00,VWS V14.01,2013-07-12 06:06:00,
2013-07-12 02:11:00,59.6,55.1,29.88,East,95,0.0,2.0,85,0.00,,SKC,0.00,VWS V14.01,2013-07-12 06:11:00,
2013-07-12 02:16:00,59.8,55.3,29.88,East,95,0.0,2.0,85,0.00,,SKC,0.00,VWS V14.01,2013-07-12 06:16:00,
2013-07-12 02:21:00,59.8,55.3,29.88,East,95,0.0,2.0,85,0.00,,SKC,0.00,VWS V14.01,2013-07-12 06:21:00,
2013-07-12 02:26:00,59.5,55.0,29.88,East,95,0.0,2.0,85,0.00,,SKC,0.00,VWS V14.01,2013-07-12 06:26:00,
2013-07-12 02:32:00,59.0,54.5,29.89,East,95,0.0,2.0,85,0.00,,SKC,0.00,VWS V14.01,2013-07-12 06:32:00,
2013-07-12 02:37:00,58.7,54.5,29.89,East,95,0.0,2.0,86,0.00,,SKC,0.00,VWS V14.01,2013-07-12 06:37:00,
2013-07-12 02:42:00,58.6,54.8,29.89,East,95,0.0,2.0,87,0.00,,SKC,0.00,VWS V14.01,2013-07-12 06:42:00,
2013-07-12 02:47:00,58.6,54.8,29.89,East,95,1.0,2.0,87,0.00,,SKC,0.00,VWS V14.01,2013-07-12 06:47:00,
2013-07-12 02:52:00,58.7,54.8,29.89,East,95,0.0,2.0,87,0.00,,SKC,0.00,VWS V14.01,2013-07-12 06:52:00,
2013-07-12 02:57:00,58.7,55.2,29.89,East,95,0.0,2.0,88,0.00,,SKC,0.00,VWS V14.01,2013-07-12 06:57:00,
2013-07-12 03:00:00,58.7,55.2,29.89,East,95,0.0,2.0,88,0.00,,SKC,0.00,VWS V14.01,2013-07-12 07:00:00,
2013-07-12 03:02:00,58.7,55.2,29.89,East,95,0.0,0.0,88,0.00,,SKC,0.00,VWS V14.01,2013-07-12 07:02:00,
2013-07-12 03:08:00,58.4,54.9,29.89,East,95,0.0,0.0,88,0.00,,SKC,0.00,VWS V14.01,2013-07-12 07:08:00,
2013-07-12 03:13:00,58.3,54.8,29.89,East,95,0.0,0.0,88,0.00,,SKC,0.00,VWS V14.01,2013-07-12 07:13:00,
2013-07-12 03:18:00,58.1,54.9,29.89,East,95,0.0,0.0,89,0.00,,SKC,0.00,VWS V14.01,2013-07-12 07:18:00,
2013-07-12 03:23:00,58.3,55.1,29.89,East,95,0.0,0.0,89,0.00,,SKC,0.00,VWS V14.01,2013-07-12 07:23:00,
2013-07-12 03:28:00,58.4,55.2,29.89,East,95,0.0,0.0,89,0.00,,SKC,0.00,VWS V14.01,2013-07-12 07:28:00,
2013-07-12 03:33:00,58.7,55.5,29.89,East,95,0.0,0.0,89,0.00,,SKC,0.00,VWS V14.01,2013-07-12 07:33:00,
2013-07-12 03:38:00,58.9,55.7,29.89,East,95,0.0,0.0,89,0.00,,SKC,0.00,VWS V14.01,2013-07-12 07:38:00,
2013-07-12 03:44:00,59.0,55.8,29.89,East,95,0.0,1.0,89,0.00,,SKC,0.00,VWS V14.01,2013-07-12 07:44:00,
2013-07-12 03:49:00,59.0,55.8,29.89,East,95,0.0,2.0,89,0.00,,SKC,0.00,VWS V14.01,2013-07-12 07:49:00,
2013-07-12 03:54:00,58.9,55.7,29.89,East,95,0.0,2.0,89,0.00,,SKC,0.00,VWS V14.01,2013-07-12 07:54:00,
2013-07-12 03:59:00,58.7,55.5,29.89,East,95,0.0,2.0,89,0.00,,SKC,0.00,VWS V14.01,2013-07-12 07:59:00,
2013-07-12 04:00:00,58.6,55.4,29.89,East,95,0.0,2.0,89,0.00,,SKC,0.00,VWS V14.01,2013-07-12 08:00:00,
2013-07-12 04:04:00,58.3,55.1,29.89,East,95,0.0,0.0,89,0.00,,SKC,0.00,VWS V14.01,2013-07-12 08:04:00,
2013-07-12 04:09:00,58.0,54.8,29.89,East,95,0.0,0.0,89,0.00,,SKC,0.00,VWS V14.01,2013-07-12 08:09:00,
2013-07-12 04:14:00,57.8,54.6,29.89,East,95,0.0,0.0,89,0.00,,SKC,0.00,VWS V14.01,2013-07-12 08:14:00,
2013-07-12 04:19:00,57.6,54.4,29.89,East,95,0.0,0.0,89,0.00,,SKC,0.00,VWS V14.01,2013-07-12 08:19:00,
2013-07-12 04:25:00,57.5,54.3,29.89,East,95,0.0,0.0,89,0.00,,SKC,0.00,VWS V14.01,2013-07-12 08:25:00,
2013-07-12 04:30:00,57.5,54.6,29.89,East,95,0.0,0.0,90,0.00,,SKC,0.00,VWS V14.01,2013-07-12 08:30:00,
2013-07-12 04:35:00,57.6,54.7,29.89,East,95,0.0,0.0,90,0.00,,SKC,0.00,VWS V14.01,2013-07-12 08:35:00,
2013-07-12 04:40:00,57.6,55.0,29.89,East,95,0.0,0.0,91,0.00,,SKC,0.00,VWS V14.01,2013-07-12 08:40:00,
2013-07-12 04:45:00,57.5,54.6,29.89,East,95,0.0,0.0,90,0.00,,SKC,0.00,VWS V14.01,2013-07-12 08:45:00,
2013-07-12 04:50:00,57.2,54.6,29.89,East,95,0.0,0.0,91,0.00,,SKC,0.00,VWS V14.01,2013-07-12 08:50:00,
2013-07-12 04:55:00,57.0,54.4,29.89,East,95,0.0,0.0,91,0.00,,SKC,0.00,VWS V14.01,2013-07-12 08:55:00,
2013-07-12 05:00:00,56.9,54.3,29.89,East,95,0.0,0.0,91,0.00,,SKC,0.00,VWS V14.01,2013-07-12 09:00:00,
2013-07-12 05:05:00,56.9,54.3,29.89,East,95,0.0,0.0,91,0.00,,SKC,0.00,VWS V14.01,2013-07-12 09:05:00,
2013-07-12 05:11:00,56.9,54.6,29.89,East,95,0.0,0.0,92,0.00,,SKC,0.00,VWS V14.01,2013-07-12 09:11:00,
2013-07-12 05:16:00,56.9,54.3,29.89,East,95,0.0,0.0,91,0.00,,SKC,0.00,VWS V14.01,2013-07-12 09:16:00,
2013-07-12 05:21:00,56.9,54.6,29.89,East,95,0.0,0.0,92,0.00,,SKC,0.00,VWS V14.01,2013-07-12 09:21:00,
2013-07-12 05:26:00,56.7,54.4,29.89,East,95,0.0,0.0,92,0.00,,SKC,0.00,VWS V14.01,2013-07-12 09:26:00,
2013-07-12 05:31:00,56.7,54.4,29.90,East,95,0.0,0.0,92,0.00,,SKC,0.00,VWS V14.01,2013-07-12 09:31:00,
2013-07-12 05:36:00,56.7,54.4,29.90,East,95,0.0,0.0,92,0.00,,SKC,0.00,VWS V14.01,2013-07-12 09:36:00,
2013-07-12 05:41:00,56.7,54.4,29.90,East,95,0.0,0.0,92,0.00,,SKC,0.00,VWS V14.01,2013-07-12 09:41:00,
2013-07-12 05:47:00,56.7,54.4,29.89,East,95,0.0,0.0,92,0.00,,SKC,0.00,VWS V14.01,2013-07-12 09:47:00,
2013-07-12 05:52:00,56.7,54.4,29.89,East,95,0.0,0.0,92,0.00,,SKC,0.00,VWS V14.01,2013-07-12 09:52:00,
2013-07-12 05:57:00,56.9,54.6,29.89,East,95,0.0,0.0,92,0.00,,SKC,0.00,VWS V14.01,2013-07-12 09:57:00,
2013-07-12 06:00:00,57.0,54.7,29.90,East,95,0.0,0.0,92,0.00,,SKC,0.00,VWS V14.01,2013-07-12 10:00:00,
2013-07-12 06:02:00,57.0,54.7,29.90,East,95,0.0,0.0,92,0.00,,SKC,0.00,VWS V14.01,2013-07-12 10:02:00,
2013-07-12 06:07:00,56.9,54.6,29.90,East,95,0.0,0.0,92,0.00,,SKC,0.00,VWS V14.01,2013-07-12 10:07:00,
2013-07-12 06:12:00,56.3,54.0,29.90,East,95,0.0,0.0,92,0.00,,SKC,0.00,VWS V14.01,2013-07-12 10:12:00,
2013-07-12 06:17:00,56.2,53.9,29.91,East,95,0.0,0.0,92,0.00,,SKC,0.00,VWS V14.01,2013-07-12 10:17:00,
2013-07-12 06:23:00,56.0,53.7,29.91,East,95,0.0,0.0,92,0.00,,SKC,0.00,VWS V14.01,2013-07-12 10:23:00,
2013-07-12 06:28:00,56.0,54.0,29.91,East,95,0.0,0.0,93,0.00,,SKC,0.00,VWS V14.01,2013-07-12 10:28:00,
2013-07-12 06:33:00,56.3,54.3,29.91,East,95,0.0,0.0,93,0.00,,SKC,0.00,VWS V14.01,2013-07-12 10:33:00,
2013-07-12 06:38:00,56.3,54.3,29.91,East,95,0.0,0.0,93,0.00,,SKC,0.00,VWS V14.01,2013-07-12 10:38:00,
2013-07-12 06:43:00,56.2,54.2,29.91,East,95,0.0,0.0,93,0.00,,SKC,0.00,VWS V14.01,2013-07-12 10:43:00,
2013-07-12 06:48:00,56.2,54.2,29.91,East,95,0.0,0.0,93,0.00,,SKC,0.00,VWS V14.01,2013-07-12 10:48:00,
2013-07-12 06:53:00,56.5,54.5,29.91,East,95,0.0,4.0,93,0.00,,SKC,0.00,VWS V14.01,2013-07-12 10:53:00,
2013-07-12 06:59:00,56.6,54.6,29.91,East,95,0.0,4.0,93,0.00,,SKC,0.00,VWS V14.01,2013-07-12 10:59:00,
2013-07-12 07:00:00,56.7,54.7,29.92,East,95,4.0,5.0,93,0.00,,SKC,0.00,VWS V14.01,2013-07-12 11:00:00,
2013-07-12 07:04:00,56.7,54.7,29.92,East,95,0.0,5.0,93,0.00,,SKC,0.00,VWS V14.01,2013-07-12 11:04:00,
2013-07-12 07:09:00,56.9,54.9,29.92,East,95,0.0,5.0,93,0.00,,SKC,0.00,VWS V14.01,2013-07-12 11:09:00,
2013-07-12 07:14:00,57.0,55.0,29.92,East,95,0.0,5.0,93,0.00,,SKC,0.00,VWS V14.01,2013-07-12 11:14:00,
2013-07-12 07:19:00,57.2,55.2,29.92,East,95,0.0,5.0,93,0.00,,SKC,0.00,VWS V14.01,2013-07-12 11:19:00,
2013-07-12 07:24:00,57.3,55.3,29.92,East,95,0.0,5.0,93,0.00,,SKC,0.00,VWS V14.01,2013-07-12 11:24:00,
2013-07-12 07:29:00,57.6,55.6,29.92,East,95,0.0,5.0,93,0.00,,SKC,0.00,VWS V14.01,2013-07-12 11:29:00,
2013-07-12 07:34:00,57.8,55.8,29.92,East,95,0.0,5.0,93,0.00,,SKC,0.00,VWS V14.01,2013-07-12 11:34:00,
2013-07-12 07:39:00,58.3,56.6,29.92,East,95,0.0,5.0,94,0.00,,SKC,0.00,VWS V14.01,2013-07-12 11:39:00,
2013-07-12 07:45:00,58.7,57.0,29.92,East,95,2.0,5.0,94,0.00,,SKC,0.00,VWS V14.01,2013-07-12 11:45:00,
2013-07-12 07:50:00,59.5,57.8,29.93,East,94,0.0,6.0,94,0.00,,SKC,0.00,VWS V14.01,2013-07-12 11:50:00,
2013-07-12 07:55:00,59.9,58.2,29.93,East,87,2.0,8.0,94,0.00,,SKC,0.00,VWS V14.01,2013-07-12 11:55:00,
2013-07-12 08:00:00,60.5,58.5,29.93,East,96,0.0,8.0,93,0.00,,SKC,0.00,VWS V14.01,2013-07-12 12:00:00,
2013-07-12 08:05:00,60.9,58.9,29.93,East,96,0.0,4.0,93,0.00,,SKC,0.00,VWS V14.01,2013-07-12 12:05:00,
2013-07-12 08:10:00,61.3,59.0,29.93,East,96,0.0,4.0,92,0.00,,SKC,0.00,VWS V14.01,2013-07-12 12:10:00,
2013-07-12 08:15:00,61.6,59.3,29.93,East,93,2.0,5.0,92,0.00,,SKC,0.00,VWS V14.01,2013-07-12 12:15:00,
2013-07-12 08:20:00,62.1,59.5,29.94,East,93,0.0,6.0,91,0.00,,SKC,0.00,VWS V14.01,2013-07-12 12:20:00,
2013-07-12 08:26:00,62.6,59.6,29.94,East,93,1.0,7.0,90,0.00,,SKC,0.00,VWS V14.01,2013-07-12 12:26:00,
2013-07-12 08:31:00,62.9,59.6,29.94,East,93,0.0,7.0,89,0.00,,SKC,0.00,VWS V14.01,2013-07-12 12:31:00,
2013-07-12 08:36:00,63.4,59.8,29.94,SE,128,4.0,7.0,88,0.00,,SKC,0.00,VWS V14.01,2013-07-12 12:36:00,
2013-07-12 08:41:00,63.7,59.8,29.94,SE,132,0.0,7.0,87,0.00,,SKC,0.00,VWS V14.01,2013-07-12 12:41:00,
2013-07-12 08:46:00,64.0,59.4,29.94,East,82,0.0,7.0,85,0.00,,SKC,0.00,VWS V14.01,2013-07-12 12:46:00,
2013-07-12 08:51:00,64.2,59.6,29.94,ENE,76,0.0,7.0,85,0.00,,SKC,0.00,VWS V14.01,2013-07-12 12:51:00,
2013-07-12 08:56:00,64.5,59.2,29.94,East,98,0.0,7.0,83,0.00,,SKC,0.00,VWS V14.01,2013-07-12 12:56:00,
2013-07-12 09:00:00,65.0,59.7,29.94,SE,145,0.0,7.0,83,0.00,,SKC,0.00,VWS V14.01,2013-07-12 13:00:00,
2013-07-12 09:01:00,65.0,59.7,29.94,SE,145,0.0,7.0,83,0.00,,SKC,0.00,VWS V14.01,2013-07-12 13:01:00,
2013-07-12 09:06:00,65.3,59.7,29.94,SSW,198,4.0,9.0,82,0.00,,SKC,0.00,VWS V14.01,2013-07-12 13:06:00,
2013-07-12 09:11:00,65.5,59.5,29.94,SE,131,1.0,9.0,81,0.00,,SKC,0.00,VWS V14.01,2013-07-12 13:11:00,
2013-07-12 09:16:00,65.5,59.2,29.95,SE,144,0.0,9.0,80,0.00,,SKC,0.00,VWS V14.01,2013-07-12 13:16:00,
2013-07-12 09:22:00,65.5,59.2,29.95,SSE,147,0.0,10.0,80,0.00,,SKC,0.00,VWS V14.01,2013-07-12 13:22:00,
2013-07-12 09:27:00,65.5,59.2,29.95,East,92,0.0,10.0,80,0.00,,SKC,0.00,VWS V14.01,2013-07-12 13:27:00,
2013-07-12 09:32:00,65.5,59.5,29.95,SE,125,0.0,10.0,81,0.00,,SKC,0.00,VWS V14.01,2013-07-12 13:32:00,
2013-07-12 09:37:00,65.8,59.8,29.95,East,85,0.0,10.0,81,0.00,,SKC,0.00,VWS V14.01,2013-07-12 13:37:00,
2013-07-12 09:42:00,66.4,60.4,29.95,SE,146,0.0,10.0,81,0.00,,SKC,0.00,VWS V14.01,2013-07-12 13:42:00,
2013-07-12 09:47:00,67.1,60.4,29.94,ESE,119,0.0,10.0,79,0.00,,SKC,0.00,VWS V14.01,2013-07-12 13:47:00,
2013-07-12 09:52:00,67.6,60.5,29.94,ESE,111,0.0,10.0,78,0.00,,SKC,0.00,VWS V14.01,2013-07-12 13:52:00,
2013-07-12 09:57:00,67.8,60.3,29.94,East,92,0.0,10.0,77,0.00,,SKC,0.00,VWS V14.01,2013-07-12 13:57:00,
2013-07-12 10:00:00,68.1,60.6,29.94,ESE,109,4.0,10.0,77,0.00,,SKC,0.00,VWS V14.01,2013-07-12 14:00:00,
2013-07-12 10:03:00,68.1,60.3,29.94,ESE,109,0.0,5.0,76,0.00,,SKC,0.00,VWS V14.01,2013-07-12 14:03:00,
2013-07-12 10:08:00,68.6,60.7,29.94,ESE,111,0.0,6.0,76,0.00,,SKC,0.00,VWS V14.01,2013-07-12 14:08:00,
2013-07-12 10:13:00,69.1,60.1,29.94,SE,136,0.0,6.0,73,0.00,,SKC,0.00,VWS V14.01,2013-07-12 14:13:00,
2013-07-12 10:18:00,69.4,60.0,29.94,East,92,0.0,8.0,72,0.00,,SKC,0.00,VWS V14.01,2013-07-12 14:18:00,
2013-07-12 10:23:00,69.9,60.1,29.94,East,90,0.0,8.0,71,0.00,,SKC,0.00,VWS V14.01,2013-07-12 14:23:00,
2013-07-12 10:28:00,70.1,60.3,29.94,ESE,117,0.0,8.0,71,0.00,,SKC,0.00,VWS V14.01,2013-07-12 14:28:00,
2013-07-12 10:33:00,69.8,60.0,29.94,East,86,0.0,8.0,71,0.00,,SKC,0.00,VWS V14.01,2013-07-12 14:33:00,
2013-07-12 10:38:00,69.9,60.9,29.94,SE,129,0.0,8.0,73,0.00,,SKC,0.00,VWS V14.01,2013-07-12 14:38:00,
2013-07-12 10:43:00,70.4,60.6,29.94,SE,140,6.0,8.0,71,0.00,,SKC,0.00,VWS V14.01,2013-07-12 14:43:00,
2013-07-12 10:49:00,70.8,59.7,29.94,SE,139,7.0,9.0,68,0.00,,SKC,0.00,VWS V14.01,2013-07-12 14:49:00,
2013-07-12 10:54:00,71.1,60.4,29.94,East,94,0.0,10.0,69,0.00,,SKC,0.00,VWS V14.01,2013-07-12 14:54:00,
2013-07-12 10:59:00,71.8,59.8,29.94,SE,145,6.0,10.0,66,0.00,,SKC,0.00,VWS V14.01,2013-07-12 14:59:00,
2013-07-12 11:00:00,72.0,60.0,29.94,SSE,160,5.0,10.0,66,0.00,,SKC,0.00,VWS V14.01,2013-07-12 15:00:00,
2013-07-12 11:04:00,72.0,59.6,29.94,SSE,148,0.0,7.0,65,0.00,,SKC,0.00,VWS V14.01,2013-07-12 15:04:00,
2013-07-12 11:09:00,72.5,60.9,29.94,East,96,0.0,8.0,67,0.00,,SKC,0.00,VWS V14.01,2013-07-12 15:09:00,
2013-07-12 11:14:00,72.7,60.3,29.94,East,81,1.0,8.0,65,0.00,,SKC,0.00,VWS V14.01,2013-07-12 15:14:00,
2013-07-12 11:19:00,73.0,61.0,29.93,East,93,4.0,8.0,66,0.00,,SKC,0.00,VWS V14.01,2013-07-12 15:19:00,
2013-07-12 11:24:00,73.3,60.0,29.93,ESE,112,1.0,8.0,63,0.00,,SKC,0.00,VWS V14.01,2013-07-12 15:24:00,
2013-07-12 11:29:00,73.5,59.7,29.93,SSE,158,0.0,8.0,62,0.00,,SKC,0.00,VWS V14.01,2013-07-12 15:29:00,
2013-07-12 11:35:00,73.5,59.7,29.94,SW,225,2.0,9.0,62,0.00,,SKC,0.00,VWS V14.01,2013-07-12 15:35:00,
2013-07-12 11:40:00,73.7,59.0,29.94,East,86,0.0,9.0,60,0.00,,SKC,0.00,VWS V14.01,2013-07-12 15:40:00,
2013-07-12 11:45:00,74.4,61.4,29.94,ESE,103,4.0,9.0,64,0.00,,SKC,0.00,VWS V14.01,2013-07-12 15:45:00,
2013-07-12 11:50:00,74.7,59.9,29.93,SE,138,0.0,10.0,60,0.00,,SKC,0.00,VWS V14.01,2013-07-12 15:50:00,
2013-07-12 11:55:00,74.7,59.0,29.93,East,92,0.0,10.0,58,0.00,,SKC,0.00,VWS V14.01,2013-07-12 15:55:00,
2013-07-12 12:00:00,75.1,60.8,29.93,SSE,149,0.0,10.0,61,0.00,,SKC,0.00,VWS V14.01,2013-07-12 16:00:00,
2013-07-12 12:05:00,75.4,61.0,29.93,ESE,109,0.0,8.0,61,0.00,,SKC,0.00,VWS V14.01,2013-07-12 16:05:00,
2013-07-12 12:10:00,75.8,60.0,29.93,SSE,148,5.0,9.0,58,0.00,,SKC,0.00,VWS V14.01,2013-07-12 16:10:00,
2013-07-12 12:15:00,75.6,58.3,29.94,SSE,161,0.0,11.0,55,0.00,,SKC,0.00,VWS V14.01,2013-07-12 16:15:00,
2013-07-12 12:21:00,75.1,58.8,29.94,SSW,200,7.0,14.0,57,0.00,,SKC,0.00,VWS V14.01,2013-07-12 16:21:00,
2013-07-12 12:26:00,75.3,59.0,29.94,SSE,159,0.0,14.0,57,0.00,,SKC,0.00,VWS V14.01,2013-07-12 16:26:00,
2013-07-12 12:31:00,75.1,59.8,29.94,East,92,6.0,14.0,59,0.00,,SKC,0.00,VWS V14.01,2013-07-12 16:31:00,
2013-07-12 12:36:00,74.7,59.0,29.94,East,101,0.0,14.0,58,0.00,,SKC,0.00,VWS V14.01,2013-07-12 16:36:00,
2013-07-12 12:42:00,74.9,60.1,29.94,NE,40,0.0,14.0,60,0.00,,SKC,0.00,VWS V14.01,2013-07-12 16:42:00,
2013-07-12 12:47:00,74.7,59.0,29.94,East,100,0.0,14.0,58,0.00,,SKC,0.00,VWS V14.01,2013-07-12 16:47:00,
2013-07-12 12:52:00,74.7,59.4,29.94,ESE,103,0.0,14.0,59,0.00,,SKC,0.00,VWS V14.01,2013-07-12 16:52:00,
2013-07-12 12:57:00,74.9,60.1,29.94,ESE,103,0.0,14.0,60,0.00,,SKC,0.00,VWS V14.01,2013-07-12 16:57:00,
2013-07-12 13:00:00,74.9,59.6,29.94,SE,127,0.0,14.0,59,0.00,,SKC,0.00,VWS V14.01,2013-07-12 17:00:00,
2013-07-12 13:02:00,74.9,59.6,29.94,SE,127,0.0,0.0,59,0.00,,SKC,0.00,VWS V14.01,2013-07-12 17:02:00,
2013-07-12 13:07:00,74.9,59.1,29.94,SE,127,1.0,8.0,58,0.00,,SKC,0.00,VWS V14.01,2013-07-12 17:07:00,
2013-07-12 13:12:00,75.1,58.8,29.94,SW,236,0.0,8.0,57,0.00,,SKC,0.00,VWS V14.01,2013-07-12 17:12:00,
2013-07-12 13:17:00,75.3,59.0,29.94,SE,144,0.0,8.0,57,0.00,,SKC,0.00,VWS V14.01,2013-07-12 17:17:00,
2013-07-12 13:22:00,75.1,59.3,29.94,East,101,0.0,8.0,58,0.00,,SKC,0.00,VWS V14.01,2013-07-12 17:22:00,
2013-07-12 13:27:00,75.1,59.3,29.94,East,95,0.0,8.0,58,0.00,,SKC,0.00,VWS V14.01,2013-07-12 17:27:00,
2013-07-12 13:32:00,75.3,59.5,29.94,ESE,118,0.0,8.0,58,0.00,,SKC,0.00,VWS V14.01,2013-07-12 17:32:00,
2013-07-12 13:38:00,75.3,59.0,29.94,SSE,148,0.0,9.0,57,0.00,,SKC,0.00,VWS V14.01,2013-07-12 17:38:00,
2013-07-12 13:43:00,75.4,59.1,29.94,SE,134,0.0,9.0,57,0.00,,SKC,0.00,VWS V14.01,2013-07-12 17:43:00,
2013-07-12 13:48:00,75.8,59.5,29.94,SE,146,1.0,9.0,57,0.00,,SKC,0.00,VWS V14.01,2013-07-12 17:48:00,
2013-07-12 13:53:00,76.1,59.8,29.94,SE,146,0.0,9.0,57,0.00,,SKC,0.00,VWS V14.01,2013-07-12 17:53:00,
2013-07-12 13:58:00,76.0,59.7,29.94,SE,136,4.0,9.0,57,0.00,,SKC,0.00,VWS V14.01,2013-07-12 17:58:00,
2013-07-12 14:00:00,76.0,58.7,29.94,ESE,119,5.0,9.0,55,0.00,,SKC,0.00,VWS V14.01,2013-07-12 18:00:00,
2013-07-12 14:03:00,76.0,58.2,29.94,ESE,105,0.0,6.0,54,0.00,,SKC,0.00,VWS V14.01,2013-07-12 18:03:00,
2013-07-12 14:08:00,76.1,59.3,29.94,ESE,104,4.0,6.0,56,0.00,,SKC,0.00,VWS V14.01,2013-07-12 18:08:00,
2013-07-12 14:13:00,76.5,59.2,29.94,SSE,155,4.0,6.0,55,0.00,,SKC,0.00,VWS V14.01,2013-07-12 18:13:00,
2013-07-12 14:18:00,76.7,59.3,29.93,East,82,0.0,8.0,55,0.00,,SKC,0.00,VWS V14.01,2013-07-12 18:18:00,
2013-07-12 14:23:00,76.7,58.3,29.93,SE,142,0.0,9.0,53,0.00,,SKC,0.00,VWS V14.01,2013-07-12 18:23:00,
2013-07-12 14:29:00,76.5,58.6,29.93,South,178,0.0,9.0,54,0.00,,SKC,0.00,VWS V14.01,2013-07-12 18:29:00,
2013-07-12 14:34:00,76.7,59.8,29.93,ESE,113,0.0,9.0,56,0.00,,SKC,0.00,VWS V14.01,2013-07-12 18:34:00,
2013-07-12 14:39:00,77.2,59.3,29.93,SSE,147,1.0,9.0,54,0.00,,SKC,0.00,VWS V14.01,2013-07-12 18:39:00,
2013-07-12 14:44:00,76.8,58.4,29.93,SSE,153,6.0,9.0,53,0.00,,SKC,0.00,VWS V14.01,2013-07-12 18:44:00,
2013-07-12 14:49:00,76.5,58.6,29.93,SSW,196,0.0,9.0,54,0.00,,SKC,0.00,VWS V14.01,2013-07-12 18:49:00,
2013-07-12 14:54:00,76.5,58.1,29.93,ENE,78,4.0,9.0,53,0.00,,SKC,0.00,VWS V14.01,2013-07-12 18:54:00,
2013-07-12 14:59:00,76.5,59.2,29.93,East,86,0.0,9.0,55,0.00,,SKC,0.00,VWS V14.01,2013-07-12 18:59:00,
2013-07-12 15:00:00,76.5,59.2,29.93,East,90,0.0,9.0,55,0.00,,SKC,0.00,VWS V14.01,2013-07-12 19:00:00,
2013-07-12 15:04:00,76.3,58.5,29.93,SSE,153,5.0,7.0,54,0.00,,SKC,0.00,VWS V14.01,2013-07-12 19:04:00,
2013-07-12 15:09:00,76.5,60.2,29.93,SE,141,10.0,10.0,57,0.00,,SKC,0.00,VWS V14.01,2013-07-12 19:09:00,
2013-07-12 15:15:00,76.5,57.6,29.93,SSE,147,0.0,10.0,52,0.00,,SKC,0.00,VWS V14.01,2013-07-12 19:15:00,
2013-07-12 15:20:00,76.7,58.3,29.93,SSE,156,0.0,10.0,53,0.00,,SKC,0.00,VWS V14.01,2013-07-12 19:20:00,
2013-07-12 15:25:00,76.5,58.6,29.93,SSW,193,0.0,10.0,54,0.00,,SKC,0.00,VWS V14.01,2013-07-12 19:25:00,
2013-07-12 15:30:00,76.7,58.8,29.93,ESE,106,0.0,10.0,54,0.00,,SKC,0.00,VWS V14.01,2013-07-12 19:30:00,
2013-07-12 15:35:00,76.7,59.3,29.93,East,96,9.0,10.0,55,0.00,,SKC,0.00,VWS V14.01,2013-07-12 19:35:00,
2013-07-12 15:40:00,76.1,59.8,29.93,East,96,0.0,10.0,57,0.00,,SKC,0.00,VWS V14.01,2013-07-12 19:40:00,
2013-07-12 15:45:00,76.0,59.2,29.93,ESE,117,0.0,10.0,56,0.00,,SKC,0.00,VWS V14.01,2013-07-12 19:45:00,
2013-07-12 15:50:00,76.1,59.8,29.93,ESE,107,3.0,10.0,57,0.00,,SKC,0.00,VWS V14.01,2013-07-12 19:50:00,
2013-07-12 15:55:00,76.5,60.2,29.93,ESE,114,0.0,10.0,57,0.00,,SKC,0.00,VWS V14.01,2013-07-12 19:55:00,
2013-07-12 16:00:00,76.7,58.8,29.92,West,269,0.0,10.0,54,0.00,,SKC,0.00,VWS V14.01,2013-07-12 20:00:00,
2013-07-12 16:05:00,76.7,59.8,29.92,East,98,4.0,5.0,56,0.00,,SKC,0.00,VWS V14.01,2013-07-12 20:05:00,
2013-07-12 16:11:00,76.7,59.3,29.92,East,98,4.0,5.0,55,0.00,,SKC,0.00,VWS V14.01,2013-07-12 20:11:00,
2013-07-12 16:16:00,76.5,59.7,29.92,East,94,0.0,7.0,56,0.00,,SKC,0.00,VWS V14.01,2013-07-12 20:16:00,
2013-07-12 16:21:00,76.1,60.3,29.92,SE,126,4.0,7.0,58,0.00,,SKC,0.00,VWS V14.01,2013-07-12 20:21:00,
2013-07-12 16:26:00,76.0,59.2,29.92,ESE,118,0.0,7.0,56,0.00,,SKC,0.00,VWS V14.01,2013-07-12 20:26:00,
2013-07-12 16:31:00,75.8,60.0,29.92,SE,125,0.0,7.0,58,0.00,,SKC,0.00,VWS V14.01,2013-07-12 20:31:00,
2013-07-12 16:36:00,75.4,59.6,29.92,East,99,0.0,7.0,58,0.00,,SKC,0.00,VWS V14.01,2013-07-12 20:36:00,
2013-07-12 16:41:00,75.1,59.8,29.92,East,100,0.0,7.0,59,0.00,,SKC,0.00,VWS V14.01,2013-07-12 20:41:00,
2013-07-12 16:46:00,74.7,59.9,29.93,ESE,115,0.0,7.0,60,0.00,,SKC,0.00,VWS V14.01,2013-07-12 20:46:00,
2013-07-12 16:51:00,74.6,60.7,29.93,ESE,115,0.0,7.0,62,0.00,,SKC,0.00,VWS V14.01,2013-07-12 20:51:00,
2013-07-12 16:56:00,74.4,60.5,29.93,ESE,115,0.0,7.0,62,0.00,,SKC,0.00,VWS V14.01,2013-07-12 20:56:00,
2013-07-12 17:00:00,74.4,60.1,29.93,ESE,109,0.0,7.0,61,0.00,,SKC,0.00,VWS V14.01,2013-07-12 21:00:00,
2013-07-12 17:01:00,74.4,60.1,29.93,ESE,109,0.0,0.0,61,0.00,,SKC,0.00,VWS V14.01,2013-07-12 21:01:00,
2013-07-12 17:07:00,74.4,60.5,29.93,ESE,109,0.0,0.0,62,0.00,,SKC,0.00,VWS V14.01,2013-07-12 21:07:00,
2013-07-12 17:12:00,74.6,60.7,29.93,ESE,109,0.0,0.0,62,0.00,,SKC,0.00,VWS V14.01,2013-07-12 21:12:00,
2013-07-12 17:17:00,74.6,59.8,29.93,ESE,112,0.0,2.0,60,0.00,,SKC,0.00,VWS V14.01,2013-07-12 21:17:00,
2013-07-12 17:22:00,74.6,60.7,29.93,ESE,112,0.0,2.0,62,0.00,,SKC,0.00,VWS V14.01,2013-07-12 21:22:00,
2013-07-12 17:27:00,74.6,60.7,29.93,ESE,112,0.0,2.0,62,0.00,,SKC,0.00,VWS V14.01,2013-07-12 21:27:00,
2013-07-12 17:32:00,74.4,61.4,29.93,ESE,112,0.0,2.0,64,0.00,,SKC,0.00,VWS V14.01,2013-07-12 21:32:00,
2013-07-12 17:37:00,74.0,60.2,29.93,ESE,112,0.0,2.0,62,0.00,,SKC,0.00,VWS V14.01,2013-07-12 21:37:00,
2013-07-12 17:43:00,73.7,60.3,29.93,ESE,112,0.0,2.0,63,0.00,,SKC,0.00,VWS V14.01,2013-07-12 21:43:00,
2013-07-12 17:48:00,73.5,61.0,29.94,ESE,112,0.0,2.0,65,0.00,,SKC,0.00,VWS V14.01,2013-07-12 21:48:00,
2013-07-12 17:53:00,73.5,61.9,29.94,ESE,112,0.0,2.0,67,0.00,,SKC,0.00,VWS V14.01,2013-07-12 21:53:00,
2013-07-12 17:58:00,73.5,62.3,29.94,ESE,112,0.0,2.0,68,0.00,,SKC,0.00,VWS V14.01,2013-07-12 21:58:00,
2013-07-12 18:00:00,73.3,62.1,29.94,ESE,112,0.0,2.0,68,0.00,,SKC,0.00,VWS V14.01,2013-07-12 22:00:00,
2013-07-12 18:03:00,73.3,61.7,29.94,ESE,112,0.0,0.0,67,0.00,,SKC,0.00,VWS V14.01,2013-07-12 22:03:00,
2013-07-12 18:08:00,72.8,60.4,29.94,East,101,0.0,0.0,65,0.00,,SKC,0.00,VWS V14.01,2013-07-12 22:08:00,
2013-07-12 18:14:00,72.5,60.1,29.94,WNW,298,0.0,0.0,65,0.00,,SKC,0.00,VWS V14.01,2013-07-12 22:14:00,
2013-07-12 18:19:00,72.5,61.8,29.93,WNW,298,0.0,0.0,69,0.00,,SKC,0.00,VWS V14.01,2013-07-12 22:19:00,
2013-07-12 18:24:00,72.5,61.3,29.93,WNW,298,0.0,0.0,68,0.00,,SKC,0.00,VWS V14.01,2013-07-12 22:24:00,
2013-07-12 18:29:00,72.5,61.8,29.93,WNW,298,0.0,0.0,69,0.00,,SKC,0.00,VWS V14.01,2013-07-12 22:29:00,
2013-07-12 18:34:00,72.5,61.3,29.93,WNW,298,0.0,0.0,68,0.00,,SKC,0.00,VWS V14.01,2013-07-12 22:34:00,
2013-07-12 18:40:00,72.3,61.6,29.93,WNW,298,0.0,0.0,69,0.00,,SKC,0.00,VWS V14.01,2013-07-12 22:40:00,
2013-07-12 18:45:00,72.5,63.0,29.93,WNW,298,0.0,0.0,72,0.00,,SKC,0.00,VWS V14.01,2013-07-12 22:45:00,
2013-07-12 18:50:00,72.3,63.2,29.93,WNW,298,0.0,0.0,73,0.00,,SKC,0.00,VWS V14.01,2013-07-12 22:50:00,
2013-07-12 18:55:00,72.3,63.9,29.93,WNW,298,0.0,0.0,75,0.00,,SKC,0.00,VWS V14.01,2013-07-12 22:55:00,
2013-07-12 19:00:00,72.3,63.9,29.93,WNW,298,0.0,0.0,75,0.00,,SKC,0.00,VWS V14.01,2013-07-12 23:00:00,
2013-07-12 19:05:00,72.3,63.9,29.93,WNW,298,0.0,0.0,75,0.00,,SKC,0.00,VWS V14.01,2013-07-12 23:05:00,
2013-07-12 19:10:00,72.3,63.9,29.93,WNW,298,0.0,0.0,75,0.00,,SKC,0.00,VWS V14.01,2013-07-12 23:10:00,
2013-07-12 19:15:00,72.1,63.0,29.93,WNW,298,0.0,0.0,73,0.00,,SKC,0.00,VWS V14.01,2013-07-12 23:15:00,
2013-07-12 19:20:00,72.1,63.0,29.94,WNW,298,0.0,0.0,73,0.00,,SKC,0.00,VWS V14.01,2013-07-12 23:20:00,
2013-07-12 19:25:00,72.3,63.2,29.94,WNW,298,0.0,0.0,73,0.00,,SKC,0.00,VWS V14.01,2013-07-12 23:25:00,
2013-07-12 19:30:00,72.0,62.1,29.94,WNW,298,0.0,0.0,71,0.00,,SKC,0.00,VWS V14.01,2013-07-12 23:30:00,
2013-07-12 19:35:00,72.0,62.1,29.94,WNW,298,0.0,0.0,71,0.00,,SKC,0.00,VWS V14.01,2013-07-12 23:35:00,
2013-07-12 19:40:00,72.0,62.5,29.94,WNW,298,0.0,0.0,72,0.00,,SKC,0.00,VWS V14.01,2013-07-12 23:40:00,
2013-07-12 19:45:00,72.1,62.6,29.94,WNW,298,0.0,0.0,72,0.00,,SKC,0.00,VWS V14.01,2013-07-12 23:45:00,
2013-07-12 19:50:00,72.0,61.3,29.94,WNW,298,0.0,0.0,69,0.00,,SKC,0.00,VWS V14.01,2013-07-12 23:50:00,
2013-07-12 19:55:00,71.8,61.1,29.94,WNW,298,0.0,0.0,69,0.00,,SKC,0.00,VWS V14.01,2013-07-12 23:55:00,
2013-07-12 20:00:00,71.8,61.5,29.94,WNW,298,0.0,0.0,70,0.00,,SKC,0.00,VWS V14.01,2013-07-13 00:00:00,
2013-07-12 20:05:00,71.8,61.5,29.94,WNW,298,0.0,0.0,70,0.00,,SKC,0.00,VWS V14.01,2013-07-13 00:05:00,
2013-07-12 20:11:00,71.8,61.1,29.94,WNW,298,0.0,0.0,69,0.00,,SKC,0.00,VWS V14.01,2013-07-13 00:11:00,
2013-07-12 20:16:00,72.0,62.1,29.94,WNW,298,0.0,0.0,71,0.00,,SKC,0.00,VWS V14.01,2013-07-13 00:16:00,
2013-07-12 20:21:00,72.0,62.5,29.94,WNW,298,0.0,0.0,72,0.00,,SKC,0.00,VWS V14.01,2013-07-13 00:21:00,
2013-07-12 20:26:00,72.0,62.9,29.94,WNW,298,0.0,0.0,73,0.00,,SKC,0.00,VWS V14.01,2013-07-13 00:26:00,
2013-07-12 20:31:00,72.0,62.9,29.93,WNW,298,0.0,0.0,73,0.00,,SKC,0.00,VWS V14.01,2013-07-13 00:31:00,
2013-07-12 20:36:00,71.8,62.3,29.93,WNW,298,0.0,0.0,72,0.00,,SKC,0.00,VWS V14.01,2013-07-13 00:36:00,
2013-07-12 20:41:00,71.6,62.5,29.93,WNW,298,0.0,0.0,73,0.00,,SKC,0.00,VWS V14.01,2013-07-13 00:41:00,
2013-07-12 20:46:00,71.5,62.4,29.93,WNW,298,0.0,0.0,73,0.00,,SKC,0.00,VWS V14.01,2013-07-13 00:46:00,
2013-07-12 20:51:00,71.1,62.8,29.93,WNW,298,0.0,0.0,75,0.00,,SKC,0.00,VWS V14.01,2013-07-13 00:51:00,
2013-07-12 20:56:00,70.9,63.0,29.93,WNW,298,0.0,0.0,76,0.00,,SKC,0.00,VWS V14.01,2013-07-13 00:56:00,
2013-07-12 21:00:00,70.6,62.3,29.94,WNW,298,0.0,0.0,75,0.00,,SKC,0.00,VWS V14.01,2013-07-13 01:00:00,
2013-07-12 21:01:00,70.6,62.3,29.94,WNW,298,0.0,0.0,75,0.00,,SKC,0.00,VWS V14.01,2013-07-13 01:01:00,
2013-07-12 21:07:00,70.4,62.5,29.94,WNW,298,0.0,0.0,76,0.00,,SKC,0.00,VWS V14.01,2013-07-13 01:07:00,
2013-07-12 21:12:00,69.9,62.4,29.94,WNW,298,0.0,0.0,77,0.00,,SKC,0.00,VWS V14.01,2013-07-13 01:12:00,
2013-07-12 21:17:00,69.8,62.6,29.95,WNW,298,0.0,0.0,78,0.00,,SKC,0.00,VWS V14.01,2013-07-13 01:17:00,
2013-07-12 21:22:00,69.6,62.8,29.95,WNW,298,0.0,0.0,79,0.00,,SKC,0.00,VWS V14.01,2013-07-13 01:22:00,
2013-07-12 21:27:00,69.3,62.5,29.95,WNW,298,0.0,0.0,79,0.00,,SKC,0.00,VWS V14.01,2013-07-13 01:27:00,
2013-07-12 21:32:00,69.1,62.3,29.96,WNW,298,0.0,0.0,79,0.00,,SKC,0.00,VWS V14.01,2013-07-13 01:32:00,
2013-07-12 21:37:00,68.9,62.1,29.96,WNW,298,0.0,0.0,79,0.00,,SKC,0.00,VWS V14.01,2013-07-13 01:37:00,
2013-07-12 21:42:00,68.9,62.1,29.96,WNW,298,0.0,0.0,79,0.00,,SKC,0.00,VWS V14.01,2013-07-13 01:42:00,
2013-07-12 21:47:00,68.8,62.0,29.95,WNW,298,0.0,0.0,79,0.00,,SKC,0.00,VWS V14.01,2013-07-13 01:47:00,
2013-07-12 21:53:00,68.6,62.2,29.95,WNW,298,0.0,0.0,80,0.00,,SKC,0.00,VWS V14.01,2013-07-13 01:53:00,
2013-07-12 21:58:00,68.4,62.0,29.95,WNW,298,0.0,0.0,80,0.00,,SKC,0.00,VWS V14.01,2013-07-13 01:58:00,
2013-07-12 22:00:00,68.4,62.0,29.96,WNW,298,0.0,0.0,80,0.00,,SKC,0.00,VWS V14.01,2013-07-13 02:00:00,
2013-07-12 22:03:00,68.4,62.0,29.96,WNW,298,0.0,0.0,80,0.00,,SKC,0.00,VWS V14.01,2013-07-13 02:03:00,
2013-07-12 22:08:00,68.3,61.9,29.96,WNW,298,0.0,0.0,80,0.00,,SKC,0.00,VWS V14.01,2013-07-13 02:08:00,
2013-07-12 22:13:00,68.3,61.9,29.96,WNW,298,0.0,0.0,80,0.00,,SKC,0.00,VWS V14.01,2013-07-13 02:13:00,
2013-07-12 22:18:00,68.1,61.7,29.96,WNW,298,0.0,0.0,80,0.00,,SKC,0.00,VWS V14.01,2013-07-13 02:18:00,
2013-07-12 22:23:00,68.1,61.7,29.96,WNW,298,0.0,0.0,80,0.00,,SKC,0.00,VWS V14.01,2013-07-13 02:23:00,
2013-07-12 22:28:00,68.1,62.1,29.96,WNW,298,0.0,0.0,81,0.00,,SKC,0.00,VWS V14.01,2013-07-13 02:28:00,
2013-07-12 22:33:00,68.1,62.4,29.96,WNW,298,0.0,0.0,82,0.00,,SKC,0.00,VWS V14.01,2013-07-13 02:33:00,
2013-07-12 22:38:00,68.1,62.4,29.96,WNW,298,0.0,0.0,82,0.00,,SKC,0.00,VWS V14.01,2013-07-13 02:38:00,
2013-07-12 22:43:00,67.9,62.2,29.96,WNW,298,0.0,0.0,82,0.00,,SKC,0.00,VWS V14.01,2013-07-13 02:43:00,
2013-07-12 22:49:00,67.9,62.2,29.96,WNW,298,0.0,0.0,82,0.00,,SKC,0.00,VWS V14.01,2013-07-13 02:49:00,
2013-07-12 22:54:00,67.9,62.2,29.96,WNW,298,0.0,0.0,82,0.00,,SKC,0.00,VWS V14.01,2013-07-13 02:54:00,
2013-07-12 22:59:00,67.8,62.1,29.96,WNW,298,0.0,0.0,82,0.00,,SKC,0.00,VWS V14.01,2013-07-13 02:59:00,
2013-07-12 23:00:00,67.8,62.1,29.96,WNW,298,0.0,0.0,82,0.00,,SKC,0.00,VWS V14.01,2013-07-13 03:00:00,
2013-07-12 23:04:00,67.8,62.5,29.96,WNW,298,0.0,0.0,83,0.00,,SKC,0.00,VWS V14.01,2013-07-13 03:04:00,
2013-07-12 23:09:00,67.6,62.3,29.96,WNW,298,0.0,0.0,83,0.00,,SKC,0.00,VWS V14.01,2013-07-13 03:09:00,
2013-07-12 23:14:00,67.4,62.1,29.96,WNW,298,0.0,0.0,83,0.00,,SKC,0.00,VWS V14.01,2013-07-13 03:14:00,
2013-07-12 23:20:00,67.3,62.0,29.96,WNW,298,0.0,0.0,83,0.00,,SKC,0.00,VWS V14.01,2013-07-13 03:20:00,
2013-07-12 23:25:00,67.3,62.3,29.96,WNW,298,0.0,0.0,84,0.00,,SKC,0.00,VWS V14.01,2013-07-13 03:25:00,
2013-07-12 23:30:00,67.1,62.1,29.96,WNW,298,0.0,0.0,84,0.00,,SKC,0.00,VWS V14.01,2013-07-13 03:30:00,
2013-07-12 23:35:00,66.9,61.9,29.96,WNW,298,0.0,0.0,84,0.00,,SKC,0.00,VWS V14.01,2013-07-13 03:35:00,
2013-07-12 23:40:00,67.1,62.1,29.96,WNW,298,0.0,0.0,84,0.00,,SKC,0.00,VWS V14.01,2013-07-13 03:40:00,
2013-07-12 23:45:00,67.1,62.5,29.96,WNW,298,0.0,0.0,85,0.00,,SKC,0.00,VWS V14.01,2013-07-13 03:45:00,
2013-07-12 23:50:00,66.9,62.2,29.96,WNW,298,0.0,0.0,85,0.00,,SKC,0.00,VWS V14.01,2013-07-13 03:50:00,
2013-07-12 23:55:00,66.9,62.6,29.96,WNW,298,0.0,0.0,86,0.00,,SKC,0.00,VWS V14.01,2013-07-13 03:55:00,